Location: ?
(35.4064°N, 139.3593°E)
Time: 18:17:23
(UTC+00:00)

ACS3 Solar Sail - Pass Details

Date: 22 June 2024
Orbit: 992 x 1023 km, 97.4° (Epoch: 14 July)

Event Time Altitude Azimuth Distance (km) Brightness Sun altitude
Exits shadow 12:28:56 40° 180° (S) 1,442 5.3 -23.0°
Maximum altitude 12:31:23 77° 258° (WSW) 1,025 4.9 -23.2°
Drops below altitude 10° 12:37:37 10° 345° (NNW) 2,765 8.1 -23.9°
Sets 12:40:07 0° 347° (NNW) 3,716 9.0 -24.2°
